Regional Weather Roundup
Issued by NWS

Home | Current Version | Previous Version | Text Only | Print | Product List | Glossary On
Versions: 1 2 3 4 5 6 7 8 9 10 11 12 13 14 15 16 17 18 19 20 21 22 23 24 25 26 27 28
000
ASUS42 KFFC 311003
RWRGA
WEATHER ROUNDUP FOR GEORGIA
NATIONAL WEATHER SERVICE PEACHTREE CITY GA
600 AM EDT FRI OCT 31 2014

NOTE: "FAIR" INDICATES FEW OR NO CLOUDS BELOW 12,000 FEET WITH NO
SIGNIFICANT WEATHER AND/OR OBSTRUCTIONS TO VISIBILITY.

* = USE WITH CAUTION. THE STATIONS MARKED WITH AN ASTERISK MAY NOT
REPORT WEATHER SUCH AS PRECIPITATION, FOG, OR THUNDER AND ARE NOT
QUALITY CONTROLLED BY NWS.

THE REMARK "TC" DENOTES TEMPERATURE READING IN DEGREES CELSIUS.

GAZ001>058-311100-
NORTH GEORGIA

CITY           SKY/WX    TMP DP  RH WIND       PRES   REMARKS
ATLANTA        PTCLDY    45  40  82 NW9       29.93S
ATHENS         CLEAR     41  39  93 CALM      29.92S
CHAMBLEE       CLEAR     40  37  89 CALM      29.93S
PEACHTREE CITY CLEAR     39  37  92 NW3       29.95S
ROME           CLOUDY    46  42  86 N3        29.95F
WEST ATLANTA   CLEAR     44  39  82 CALM      29.94S
GAINESVILLE    CLEAR     44  39  82 N3        29.93F
CARTERSVILLE   MOCLDY    40  37  89 CALM      29.97S


CITY           SKY/WX    TMP DP  RH WIND       PRES   REMARKS
DALTON*        CLOUDY    43  41  93 CALM      29.96F
MARIETTA       PTCLDY    42  40  92 W6        29.93S
$$

GAZ059>098-102>109-311100-
CENTRAL GEORGIA

CITY           SKY/WX    TMP DP  RH WIND       PRES   REMARKS
AUGUSTA-BUSH   CLEAR     39  38  96 CALM      29.91S FOG
AUGUSTA-DANIEL CLEAR     50  42  74 NW5       29.91S
COLUMBUS       FAIR      49  40  71 N6        29.94S
MACON          CLEAR     41  40  96 CALM      29.92F
ROBINS AFB     CLEAR     42  40  91 N6        29.91F


CITY           SKY/WX    TMP DP  RH WIND       PRES   REMARKS
LAGRANGE*        N/A     39  38  99 CALM      29.95S FOG
SYLVANIA*      CLEAR     52  51  98 CALM      29.90S
MILLEDGEVILLE* CLEAR     45  45 100 CALM      29.93S
$$

GAZ099>101-110>166-311100-
SOUTH GEORGIA

CITY           SKY/WX    TMP DP  RH WIND       PRES   REMARKS
SAVANNAH       CLEAR     54  50  86 CALM      29.89S
VALDOSTA       CLEAR     47  41  80 CALM      29.90S
ALMA           PTCLDY    51  45  79 N5        29.90R
ST SIMONS      CLEAR     60  58  92 N6        29.87R
FT STEWART     PTCLDY    52  51  95 NW2       29.87S
ALBANY         CLEAR     45  42  89 CALM      29.94F
HUNTER AFB     CLEAR     57  55  92 N5        29.86S
MOODY AFB      CLEAR     49  45  86 N8        29.89S
BRUNSWICK      CLEAR     57  55  94 N3        29.88S


CITY           SKY/WX    TMP DP  RH WIND       PRES   REMARKS
BAINBRIDGE*    CLEAR     46  43  87 CALM      29.94S
MOULTRIE*      CLEAR     50  45  81 CALM      29.92S
VIDALIA*       MOCLDY    50  46  87 CALM      29.91S
WAYCROSS*      CLOUDY    55  51  89 CALM      29.89S
DOUGLAS*       CLEAR     54  45  71 N7        29.92R
$$



USA.gov is the U.S. government's official web portal to all federal, state and local government web resources and services.